Orbital Elements at Epoch 2459000.5 (2020-May-31.0) TDB
Reference: JPL 13 (heliocentric ecliptic J2000)
Element | Value | Uncertainty (1-sigma) | Units |
e | .0429698842972215 | 5.3823e-08 | |
a | 2.54593005879763 | 1.7914e-08 | au |
q | 2.436531738742278 | 1.4239e-07 | au |
i | 4.700068990404001 | 4.3305e-06 | deg |
node | 126.8821666019752 | 6.9935e-05 | deg |
peri | 273.6450711445483 | 8.8687e-05 | deg |
M | 28.67955356784637 | 5.3821e-05 | deg |
tp | 2458882.294409791541 (2020-Feb-02.79440979) | 0.00022175 | TDB |
period | 1483.775274757206 4.06 | 1.5661e-05 4.288e-08 | d yr |
n | .2426243421928618 | 2.5608e-09 | deg/d |
Q | 2.655328378852983 | 1.8684e-08 | au |
|
| | Orbit Determination Parameters
Additional Information
|